When you browse on this site, cookies collect data to enhance your experience and personalize the content and advertising you see.
Visit our Privacy Policy to learn more. By continuing to use the site, you agree to this use of cookies and data.
  • In Portugal
  • List of Countries
  • For 7 days
  • Water Temperature
  • Satellite Maps
  • Weather Map
  • Weather Widgets
  • user-avatar
    Login

    Hourly Weather Townsville

    Today, 16 December, Sunday

    Time Temperature Precipitation Wind Pressure Humidity
    00:00 +27°C° 5 mm 7 mps 746 mmHg 95%
    01:00 +27°C° 5 mm 7 mps 745 mmHg 96%
    02:00 +27°C° 19.4 mm 8 mps 745 mmHg 96%
    03:00 +27°C° 19.4 mm 9 mps 744 mmHg 95%
    04:00 +27°C° 0 mm 5 mps 746 mmHg 95%
    05:00 +27°C° 15.8 mm 7 mps 745 mmHg 95%
    06:00 +27°C° 15.8 mm 8 mps 744 mmHg 96%
    07:00 +27°C° 15.8 mm 10 mps 744 mmHg 96%
    08:00 +27°C° 6.2 mm 9 mps 744 mmHg 95%
    09:00 +27°C° 6.2 mm 9 mps 744 mmHg 95%
    10:00 +26°C° 0 mm 6 mps 746 mmHg 97%
    11:00 +27°C° 0.7 mm 7 mps 746 mmHg 95%
    12:00 +27°C° 0.7 mm 7 mps 746 mmHg 93%
    13:00 +28°C° 0.7 mm 8 mps 745 mmHg 91%
    14:00 +28°C° 0.1 mm 8 mps 745 mmHg 87%
    15:00 +29°C° 0.1 mm 8 mps 744 mmHg 83%
    16:00 +30°C° 0.1 mm 7 mps 744 mmHg 80%
    17:00 +29°C° 0 mm 7 mps 744 mmHg 81%
    18:00 +28°C° 0 mm 6 mps 744 mmHg 82%
    19:00 +28°C° 0 mm 5 mps 745 mmHg 83%
    20:00 +27°C° 0 mm 5 mps 745 mmHg 84%
    21:00 +27°C° 0 mm 5 mps 745 mmHg 86%
    22:00 +26°C° 0 mm 4 mps 746 mmHg 88%
    23:00 +26°C° 0 mm 4 mps 746 mmHg 89%

    Tomorrow, 17 December, Monday

    Time Temperature Precipitation Wind Pressure Humidity
    00:00 +26°C° 0 mm 4 mps 745 mmHg 90%
    01:00 +25°C° 0 mm 3 mps 745 mmHg 91%
    02:00 +25°C° 0 mm 4 mps 745 mmHg 91%
    03:00 +25°C° 0 mm 4 mps 745 mmHg 91%
    04:00 +25°C° 0 mm 4 mps 745 mmHg 91%
    05:00 +26°C° 0 mm 4 mps 746 mmHg 89%
    06:00 +26°C° 0 mm 4 mps 746 mmHg 87%
    07:00 +27°C° 0 mm 4 mps 746 mmHg 85%
    08:00 +29°C° 0 mm 4 mps 746 mmHg 78%
    09:00 +32°C° 0 mm 4 mps 746 mmHg 71%
    10:00 +34°C° 0 mm 4 mps 747 mmHg 64%
    11:00 +35°C° 0.2 mm 4 mps 746 mmHg 60%
    12:00 +36°C° 0.2 mm 4 mps 746 mmHg 56%
    13:00 +37°C° 0.2 mm 3 mps 746 mmHg 52%
    14:00 +37°C° 0.3 mm 3 mps 745 mmHg 53%
    15:00 +36°C° 0.3 mm 3 mps 745 mmHg 53%
    16:00 +36°C° 0.3 mm 3 mps 744 mmHg 54%
    17:00 +35°C° 0.3 mm 3 mps 745 mmHg 60%
    18:00 +34°C° 0.3 mm 3 mps 745 mmHg 66%
    19:00 +31°C° 0.3 mm 2 mps 746 mmHg 71%
    20:00 +31°C° 0.9 mm 2 mps 746 mmHg 74%
    21:00 +30°C° 0.9 mm 2 mps 747 mmHg 77%
    22:00 +29°C° 0.9 mm 2 mps 748 mmHg 80%
    23:00 +29°C° 0.8 mm 1 mps 747 mmHg 83%

    Day after tomorrow, 18 December, Tuesday

    Time Temperature Precipitation Wind Pressure Humidity
    00:00 +29°C° 0.8 mm 1 mps 747 mmHg 85%
    01:00 +28°C° 0.8 mm 1 mps 747 mmHg 87%
    02:00 +28°C° 0.4 mm 1 mps 747 mmHg 88%
    03:00 +28°C° 0.4 mm 1 mps 747 mmHg 88%
    04:00 +28°C° 0.4 mm 1 mps 747 mmHg 89%
    05:00 +28°C° 0 mm 2 mps 747 mmHg 88%
    06:00 +28°C° 0 mm 3 mps 748 mmHg 87%
    07:00 +29°C° 0 mm 3 mps 748 mmHg 85%
    08:00 +30°C° 0 mm 3 mps 749 mmHg 77%
    09:00 +33°C° 0 mm 3 mps 749 mmHg 69%
    10:00 +34°C° 0 mm 3 mps 749 mmHg 60%
    11:00 +35°C° 0 mm 3 mps 748 mmHg 56%
    12:00 +36°C° 0 mm 3 mps 748 mmHg 53%
    13:00 +37°C° 0 mm 3 mps 748 mmHg 49%
    14:00 +37°C° 0.1 mm 3 mps 747 mmHg 50%
    15:00 +37°C° 0.1 mm 3 mps 747 mmHg 52%
    16:00 +37°C° 0.1 mm 4 mps 746 mmHg 53%
    17:00 +35°C° 0.8 mm 4 mps 747 mmHg 63%
    18:00 +33°C° 0.8 mm 4 mps 747 mmHg 73%
    19:00 +30°C° 0.8 mm 4 mps 748 mmHg 83%
    20:00 +29°C° 0.9 mm 4 mps 748 mmHg 85%
    21:00 +29°C° 0.9 mm 4 mps 749 mmHg 87%
    22:00 +29°C° 0.9 mm 4 mps 750 mmHg 89%
    23:00 +28°C° 0.9 mm 4 mps 749 mmHg 89%

    19 December, Wednesday

    Time Temperature Precipitation Wind Pressure Humidity
    00:00 +28°C° 0.9 mm 4 mps 749 mmHg 90%
    01:00 +28°C° 0.9 mm 4 mps 749 mmHg 91%
    02:00 +27°C° 0.7 mm 4 mps 749 mmHg 91%
    03:00 +27°C° 0.7 mm 4 mps 749 mmHg 91%
    04:00 +27°C° 0.7 mm 4 mps 748 mmHg 91%
    05:00 +27°C° 0.2 mm 4 mps 749 mmHg 89%
    06:00 +28°C° 0.2 mm 4 mps 749 mmHg 87%
    07:00 +28°C° 0.2 mm 4 mps 750 mmHg 85%
    08:00 +30°C° 0 mm 4 mps 750 mmHg 79%
    09:00 +32°C° 0 mm 4 mps 750 mmHg 73%
    10:00 +34°C° 0 mm 4 mps 750 mmHg 66%
    11:00 +34°C° 0.1 mm 4 mps 750 mmHg 65%
    12:00 +35°C° 0.1 mm 4 mps 749 mmHg 64%
    13:00 +35°C° 0.1 mm 4 mps 749 mmHg 62%
    14:00 +35°C° 0.4 mm 5 mps 748 mmHg 66%
    15:00 +34°C° 0.4 mm 5 mps 748 mmHg 69%
    16:00 +34°C° 0.4 mm 5 mps 747 mmHg 72%
    17:00 +32°C° 0.2 mm 5 mps 748 mmHg 77%
    18:00 +30°C° 0.2 mm 4 mps 748 mmHg 82%
    19:00 +29°C° 0.2 mm 4 mps 749 mmHg 87%
    20:00 +29°C° 0 mm 4 mps 750 mmHg 89%
    21:00 +29°C° 0 mm 4 mps 750 mmHg 91%
    22:00 +28°C° 0 mm 4 mps 751 mmHg 93%
    23:00 +28°C° 0 mm 4 mps 750 mmHg 93%

    20 December, Thursday

    Time Temperature Precipitation Wind Pressure Humidity
    00:00 +28°C° 0 mm 4 mps 750 mmHg 94%
    01:00 +27°C° 0 mm 4 mps 750 mmHg 95%
    02:00 +27°C° 0 mm 4 mps 750 mmHg 96%
    03:00 +27°C° 0 mm 4 mps 750 mmHg 96%
    04:00 +27°C° 0 mm 4 mps 749 mmHg 97%
    05:00 +27°C° 0 mm 4 mps 750 mmHg 95%
    06:00 +28°C° 0 mm 4 mps 750 mmHg 92%
    07:00 +28°C° 0 mm 4 mps 751 mmHg 90%
    08:00 +30°C° 0 mm 4 mps 751 mmHg 83%
    09:00 +32°C° 0 mm 4 mps 751 mmHg 76%
    10:00 +33°C° 0 mm 4 mps 750 mmHg 70%
    11:00 +34°C° 0 mm 5 mps 750 mmHg 67%
    12:00 +35°C° 0 mm 5 mps 749 mmHg 64%
    13:00 +36°C° 0 mm 5 mps 749 mmHg 61%
    14:00 +35°C° 0 mm 5 mps 748 mmHg 63%
    15:00 +35°C° 0 mm 5 mps 748 mmHg 65%
    16:00 +34°C° 0 mm 5 mps 747 mmHg 67%
    17:00 +33°C° 0 mm 4 mps 748 mmHg 73%
    18:00 +32°C° 0 mm 4 mps 748 mmHg 79%
    19:00 +29°C° 0 mm 3 mps 749 mmHg 85%
    20:00 +29°C° 0 mm 3 mps 749 mmHg 87%
    21:00 +28°C° 0 mm 3 mps 750 mmHg 90%
    22:00 +28°C° 0 mm 3 mps 750 mmHg 92%
    23:00 +28°C° 0 mm 3 mps 750 mmHg 93%

    21 December, Friday

    Time Temperature Precipitation Wind Pressure Humidity
    00:00 +28°C° 0 mm 3 mps 749 mmHg 94%
    01:00 +28°C° 0 mm 3 mps 749 mmHg 95%
    02:00 +27°C° 0 mm 3 mps 748 mmHg 95%
    03:00 +27°C° 0 mm 3 mps 748 mmHg 96%
    04:00 +27°C° 0 mm 3 mps 748 mmHg 97%
    05:00 +28°C° 0 mm 3 mps 748 mmHg 94%
    06:00 +28°C° 0 mm 3 mps 749 mmHg 91%
    07:00 +29°C° 0 mm 3 mps 749 mmHg 89%
    08:00 +30°C° 0.1 mm 3 mps 749 mmHg 83%
    09:00 +31°C° 0.1 mm 3 mps 749 mmHg 77%
    10:00 +33°C° 0.1 mm 3 mps 749 mmHg 72%
    11:00 +34°C° 0.1 mm 3 mps 749 mmHg 68%
    12:00 +35°C° 0.1 mm 4 mps 748 mmHg 65%
    13:00 +35°C° 0.1 mm 4 mps 748 mmHg 62%
    14:00 +35°C° 0 mm 4 mps 748 mmHg 63%
    15:00 +35°C° 0 mm 4 mps 747 mmHg 65%
    16:00 +34°C° 0 mm 4 mps 747 mmHg 66%
    17:00 +33°C° 0 mm 4 mps 747 mmHg 72%
    18:00 +31°C° 0 mm 3 mps 748 mmHg 78%
    19:00 +29°C° 0 mm 3 mps 748 mmHg 84%
    20:00 +29°C° 0 mm 3 mps 749 mmHg 86%
    21:00 +28°C° 0 mm 3 mps 749 mmHg 88%
    22:00 +28°C° 0 mm 3 mps 749 mmHg 91%
    23:00 +28°C° 0 mm 3 mps 749 mmHg 91%
    Show more